,

(GMT )
St.-Anicet

Weather History for CWBZ - September, 2012

Change the Weather History Date:

Friday, September 28, 2012

  Actual Average Record
Temperature  
Mean Temperature 50 °F -  
Max Temperature 65 °F - - ()
Min Temperature 34 °F - - ()
Degree Days  
Heating Degree Days 16    
Moisture  
Dew Point 43 °F    
Average Humidity 83    
Maximum Humidity 99    
Minimum Humidity 43    
Precipitation  
Precipitation 0.00 in - - ()
Sea Level Pressure  
Sea Level Pressure 30.12 in    
Wind  
Wind Speed 2 mph ()    
Max Wind Speed 7 mph    
Max Gust Speed -    
T = Trace of Precipitation, MM = Missing Value Source: Averaged Metar Reports

Daily Weather History Graph

Daily Weather History Graph

Search for Another Location

Airport or City:

Trip Planner

Search our weather history database for the weather conditions in past years. The results will help you decide how hot, cold, wet, or windy it might be!

Date:

Astronomy

Sep. 28, 2012 Rise Set
Actual Time 6:52 AM EDT 6:42 PM EDT
Civil Twilight 6:22 AM EDT 7:11 PM EDT
Nautical Twilight 5:48 AM EDT 7:45 PM EDT
Astronomical Twilight 5:13 AM EDT 8:20 PM EDT
Moon 5:43 PM EDT (9/28) 5:18 AM EDT (9/28)
Length of Visible Light 12h 48m
Length of Day
11h 50m
Waxing Gibbous, 98% of the Moon is Illuminated
Sep 28
Waxing Gibbous
Sep 29
Full
Oct 8
Last Quarter
Oct 15
New
Oct 21
First Quarter

Hourly Weather History & Observations

Time (EDT) Temp. Windchill Dew Point Humidity Pressure Visibility Wind Dir Wind Speed Gust Speed Precip Events Conditions
12:00 AM 37.0 °F - 36.3 °F 97% 30.24 in - Calm Calm - N/A   Unknown
1:00 AM 36.9 °F - 36.3 °F 98% 30.23 in - Calm Calm - N/A   Unknown
2:00 AM 36 °F - 35 °F 95% 30.23 in - Calm Calm - -  
2:00 AM 35.6 °F - 35.1 °F 98% 30.23 in - Calm Calm - N/A   Unknown
3:00 AM 35.1 °F - 34.5 °F 98% 30.21 in - NE 2.3 mph - N/A   Unknown
4:00 AM 34.7 °F - 34.2 °F 98% 30.21 in - East 1.2 mph - N/A   Unknown
5:00 AM 34.0 °F - 33.4 °F 98% 30.20 in - NE 2.3 mph - N/A   Unknown
6:00 AM 34.2 °F 31.2 °F 33.6 °F 98% 30.18 in - ENE 3.5 mph - N/A   Unknown
7:00 AM 35.1 °F - 34.5 °F 98% 30.17 in - East 2.3 mph - N/A   Unknown
8:00 AM 39 °F - 39 °F 99% 30.17 in - East 1.2 mph - -  
8:00 AM 39.2 °F - 38.8 °F 99% 30.17 in - East 1.2 mph - N/A   Unknown
9:00 AM 46.6 °F - 44.6 °F 93% 30.17 in - East 2.3 mph - N/A   Unknown
10:00 AM 53.1 °F - 46.6 °F 79% 30.15 in - East 4.6 mph - N/A   Unknown
11:00 AM 56.8 °F - 46.6 °F 69% 30.13 in - East 4.6 mph - N/A   Unknown
12:00 PM 61.0 °F - 47.1 °F 60% 30.12 in - NE 5.8 mph - N/A   Unknown
1:00 PM 61.7 °F - 47.7 °F 60% 30.09 in - North 6.9 mph - N/A   Unknown
2:00 PM 64 °F - 47 °F 43% 30.06 in - NNE 6.9 mph - -  
2:00 PM 63.9 °F - 47.1 °F 54% 30.06 in - NNE 6.9 mph - N/A   Unknown
3:00 PM 64.6 °F - 48.4 °F 56% 30.04 in - North 5.8 mph - N/A   Unknown
4:00 PM 63.7 °F - 48.7 °F 58% 30.03 in - North 4.6 mph - N/A   Unknown
5:00 PM 63.9 °F - 49.1 °F 59% 30.02 in - North 4.6 mph - N/A   Unknown
6:00 PM 60.6 °F - 50.5 °F 69% 30.03 in - ENE 4.6 mph - N/A   Unknown
7:00 PM 54.9 °F - 49.8 °F 83% 30.03 in - ENE 3.5 mph - N/A   Unknown
8:00 PM 51 °F - 49 °F 89% 30.04 in - NNE 2.3 mph - -  
8:00 PM 50.7 °F - 48.7 °F 93% 30.04 in - NNE 2.3 mph - N/A   Unknown
9:00 PM 49.5 °F - 47.7 °F 94% 30.04 in - East 2.3 mph - N/A   Unknown
10:00 PM 44.6 °F - 43.5 °F 96% 30.04 in - Calm Calm - N/A   Unknown
11:00 PM 43.5 °F - 42.8 °F 97% 30.03 in - Calm Calm - N/A   Unknown